When you browse on this site, cookies collect data to enhance your experience and personalize the content and advertising you see.
Visit our Privacy Policy to learn more. By continuing to use the site, you agree to this use of cookies and data.
EN

Hourly Weather Suomussalmi

Today, 4 August, Tuesday

Time Temperature Precipitation Wind Pressure Humidity
00:00 +13°C° 0.3 mm 1 mps 734 mmHg 96%
01:00 +13°C° 0.3 mm 1 mps 734 mmHg 96%
02:00 +13°C° 0 mm 1 mps 734 mmHg 98%
03:00 +14°C° 0.1 mm 1 mps 734 mmHg 98%
04:00 +14°C° 0.1 mm 1 mps 734 mmHg 97%
05:00 +14°C° 0.1 mm 1 mps 734 mmHg 97%
06:00 +14°C° 0.3 mm 1 mps 734 mmHg 97%
07:00 +15°C° 0.3 mm 1 mps 734 mmHg 96%
08:00 +15°C° 0.3 mm 2 mps 735 mmHg 96%
09:00 +16°C° 0.3 mm 2 mps 735 mmHg 91%
10:00 +17°C° 0.3 mm 3 mps 735 mmHg 86%
11:00 +18°C° 0.3 mm 3 mps 735 mmHg 81%
12:00 +19°C° 0.1 mm 4 mps 735 mmHg 72%
13:00 +20°C° 0.1 mm 4 mps 736 mmHg 63%
14:00 +21°C° 0.1 mm 4 mps 736 mmHg 54%
15:00 +21°C° 0 mm 4 mps 736 mmHg 53%
16:00 +21°C° 0 mm 4 mps 736 mmHg 53%
17:00 +21°C° 0 mm 4 mps 736 mmHg 53%
18:00 +19°C° 0 mm 3 mps 736 mmHg 61%
19:00 +18°C° 0 mm 3 mps 736 mmHg 69%
20:00 +17°C° 0 mm 2 mps 736 mmHg 76%
21:00 +16°C° 0 mm 2 mps 736 mmHg 81%
22:00 +14°C° 0 mm 2 mps 736 mmHg 86%
23:00 +13°C° 0 mm 2 mps 736 mmHg 90%

Tomorrow, 5 August, Wednesday

Time Temperature Precipitation Wind Pressure Humidity
00:00 +13°C° 0 mm 2 mps 736 mmHg 92%
01:00 +13°C° 0 mm 2 mps 736 mmHg 94%
02:00 +12°C° 0 mm 1 mps 736 mmHg 96%
03:00 +12°C° 0 mm 1 mps 736 mmHg 96%
04:00 +12°C° 0 mm 1 mps 736 mmHg 95%
05:00 +13°C° 0 mm 1 mps 736 mmHg 95%
06:00 +14°C° 0 mm 1 mps 736 mmHg 88%
07:00 +15°C° 0 mm 2 mps 736 mmHg 82%
08:00 +16°C° 0 mm 2 mps 736 mmHg 76%
09:00 +17°C° 0.1 mm 2 mps 736 mmHg 71%
10:00 +18°C° 0.1 mm 3 mps 736 mmHg 67%
11:00 +19°C° 0.1 mm 3 mps 737 mmHg 62%
12:00 +20°C° 0.3 mm 3 mps 737 mmHg 62%
13:00 +20°C° 0.3 mm 4 mps 737 mmHg 62%
14:00 +20°C° 0.3 mm 4 mps 737 mmHg 62%
15:00 +20°C° 0.1 mm 4 mps 738 mmHg 60%
16:00 +20°C° 0.1 mm 4 mps 738 mmHg 59%
17:00 +20°C° 0.1 mm 4 mps 738 mmHg 58%
18:00 +18°C° 0 mm 4 mps 739 mmHg 62%
19:00 +17°C° 0 mm 3 mps 739 mmHg 66%
20:00 +16°C° 0 mm 2 mps 739 mmHg 71%
21:00 +15°C° 0 mm 2 mps 740 mmHg 73%
22:00 +14°C° 0 mm 2 mps 740 mmHg 76%
23:00 +13°C° 0 mm 2 mps 740 mmHg 78%

Day after tomorrow, 6 August, Thursday

Time Temperature Precipitation Wind Pressure Humidity
00:00 +12°C° 0 mm 2 mps 741 mmHg 79%
01:00 +12°C° 0 mm 2 mps 741 mmHg 80%
02:00 +12°C° 0 mm 1 mps 741 mmHg 80%
03:00 +12°C° 0 mm 1 mps 742 mmHg 80%
04:00 +13°C° 0 mm 1 mps 742 mmHg 80%
05:00 +13°C° 0 mm 1 mps 742 mmHg 79%
06:00 +14°C° 0 mm 1 mps 743 mmHg 74%
07:00 +16°C° 0 mm 2 mps 743 mmHg 69%
08:00 +17°C° 0 mm 2 mps 743 mmHg 63%
09:00 +18°C° 0 mm 3 mps 743 mmHg 61%
10:00 +19°C° 0 mm 3 mps 744 mmHg 58%
11:00 +20°C° 0 mm 4 mps 744 mmHg 56%
12:00 +20°C° 0.1 mm 4 mps 744 mmHg 56%
13:00 +20°C° 0.1 mm 4 mps 745 mmHg 55%
14:00 +21°C° 0.1 mm 4 mps 745 mmHg 55%
15:00 +21°C° 0 mm 3 mps 745 mmHg 56%
16:00 +21°C° 0 mm 3 mps 745 mmHg 56%
17:00 +20°C° 0 mm 3 mps 746 mmHg 57%
18:00 +19°C° 0 mm 2 mps 746 mmHg 65%
19:00 +18°C° 0 mm 2 mps 746 mmHg 73%
20:00 +16°C° 0 mm 2 mps 747 mmHg 80%
21:00 +15°C° 0 mm 2 mps 747 mmHg 85%
22:00 +14°C° 0 mm 1 mps 747 mmHg 90%
23:00 +13°C° 0 mm 1 mps 748 mmHg 94%

7 August, Friday

Time Temperature Precipitation Wind Pressure Humidity
00:00 +13°C° 0 mm 1 mps 748 mmHg 95%
01:00 +12°C° 0 mm 1 mps 748 mmHg 95%
02:00 +12°C° 0 mm 1 mps 749 mmHg 95%
03:00 +12°C° 0 mm 1 mps 749 mmHg 94%
04:00 +12°C° 0 mm 1 mps 749 mmHg 93%
05:00 +13°C° 0 mm 1 mps 749 mmHg 91%
06:00 +15°C° 0 mm 1 mps 750 mmHg 83%
07:00 +18°C° 0 mm 1 mps 750 mmHg 75%
08:00 +20°C° 0 mm 1 mps 750 mmHg 67%
09:00 +21°C° 0 mm 1 mps 750 mmHg 62%
10:00 +23°C° 0 mm 1 mps 751 mmHg 57%
11:00 +22°C° 0 mm 0 mps 751 mmHg 51%
12:00 +22°C° 0 mm 0 mps 751 mmHg 50%
13:00 +23°C° 0 mm 0 mps 751 mmHg 48%
14:00 +23°C° 0 mm 0 mps 751 mmHg 47%
15:00 +22°C° 0 mm 0 mps 751 mmHg 49%
16:00 +22°C° 0 mm 0 mps 751 mmHg 52%
17:00 +21°C° 0 mm 0 mps 751 mmHg 55%
18:00 +20°C° 0 mm 0 mps 751 mmHg 58%
19:00 +19°C° 0 mm 0 mps 751 mmHg 61%
20:00 +18°C° 0 mm 0 mps 751 mmHg 64%
21:00 +17°C° 0 mm 0 mps 751 mmHg 66%
22:00 +16°C° 0 mm 0 mps 751 mmHg 68%
23:00 +15°C° 0 mm 0 mps 751 mmHg 70%

8 August, Saturday

Time Temperature Precipitation Wind Pressure Humidity
00:00 +15°C° 0 mm 0 mps 751 mmHg 74%
01:00 +15°C° 0 mm 1 mps 751 mmHg 78%
02:00 +14°C° 0 mm 1 mps 751 mmHg 82%
03:00 +14°C° 0 mm 1 mps 751 mmHg 83%
04:00 +14°C° 0 mm 1 mps 751 mmHg 84%
05:00 +14°C° 0 mm 1 mps 751 mmHg 85%
06:00 +16°C° 0 mm 1 mps 751 mmHg 78%
07:00 +19°C° 0 mm 1 mps 751 mmHg 71%
08:00 +21°C° 0 mm 1 mps 751 mmHg 65%
09:00 +22°C° 0 mm 1 mps 751 mmHg 59%
10:00 +23°C° 0 mm 1 mps 751 mmHg 53%
11:00 +24°C° 0 mm 1 mps 751 mmHg 47%
12:00 +24°C° 0 mm 1 mps 751 mmHg 47%
13:00 +24°C° 0 mm 1 mps 750 mmHg 48%
14:00 +24°C° 0 mm 1 mps 750 mmHg 49%
15:00 +23°C° 0 mm 1 mps 750 mmHg 51%
16:00 +23°C° 0 mm 1 mps 749 mmHg 53%
17:00 +23°C° 0 mm 1 mps 749 mmHg 54%
18:00 +22°C° 0 mm 1 mps 749 mmHg 58%
19:00 +21°C° 0 mm 1 mps 749 mmHg 61%
20:00 +18°C° 0 mm 0 mps 749 mmHg 65%
21:00 +19°C° 0 mm 1 mps 748 mmHg 67%
22:00 +18°C° 0 mm 1 mps 748 mmHg 69%
23:00 +16°C° 0 mm 1 mps 748 mmHg 71%

9 August, Sunday

Time Temperature Precipitation Wind Pressure Humidity
00:00 +16°C° 0 mm 1 mps 748 mmHg 74%
01:00 +15°C° 0 mm 1 mps 748 mmHg 77%
02:00 +14°C° 0 mm 1 mps 748 mmHg 81%
03:00 +14°C° 0 mm 1 mps 748 mmHg 80%
04:00 +15°C° 0 mm 1 mps 748 mmHg 80%
05:00 +15°C° 0 mm 1 mps 747 mmHg 79%
06:00 +18°C° 0 mm 1 mps 747 mmHg 73%
07:00 +19°C° 0 mm 1 mps 747 mmHg 67%
08:00 +21°C° 0 mm 1 mps 747 mmHg 61%
09:00 +22°C° 0 mm 1 mps 747 mmHg 57%
10:00 +23°C° 0 mm 1 mps 747 mmHg 52%
11:00 +24°C° 0 mm 2 mps 747 mmHg 48%
12:00 +24°C° 0 mm 1 mps 747 mmHg 48%
13:00 +24°C° 0 mm 1 mps 746 mmHg 49%
14:00 +24°C° 0 mm 1 mps 746 mmHg 49%
15:00 +24°C° 0 mm 1 mps 746 mmHg 50%
16:00 +24°C° 0 mm 1 mps 745 mmHg 51%
17:00 +24°C° 0 mm 1 mps 745 mmHg 52%
18:00 +22°C° 0 mm 1 mps 745 mmHg 57%
19:00 +21°C° 0 mm 1 mps 745 mmHg 63%
20:00 +17°C° 0 mm 0 mps 744 mmHg 68%
21:00 +16°C° 0 mm 0 mps 744 mmHg 70%
22:00 +15°C° 0 mm 0 mps 744 mmHg 72%
23:00 +14°C° 0 mm 0 mps 744 mmHg 74%
Show more